Weather History for Warrensburg, MO

Change the Weather History Date:

Thursday, May 15, 2014

  Actual Average (KSZL) Record (KSZL)
Temperature  
Mean Temperature - -  
Max Temperature - 73 °F 86 °F (2001)
Min Temperature - 54 °F 41 °F (2004)
Moisture  
Dew Point -    
Average Humidity    
Maximum Humidity    
Minimum Humidity    
Precipitation  
Precipitation 0.00 in - - ()
Sea Level Pressure  
Sea Level Pressure 30.11 in    
Wind  
Wind Speed 7 mph (WNW)    
Max Wind Speed 20 mph    
Max Gust Speed 30 mph    
Visibility 10 miles    
Events Thunderstorm    
Averages and records for this station are not official NWS values.
T = Trace of Precipitation, MM = Missing Value Source: NWS Daily Summary

Daily Weather History Graph

Daily Weather History Graph

Search for Another Location

Airport:

Trip Planner

Search our weather history database for the weather conditions in past years. The results will help you decide how hot, cold, wet, or windy it might be!

Date:

Astronomy

May. 15, 2014 Rise Set
Actual Time 6:02 AM CDT 8:20 PM CDT
Civil Twilight 5:33 AM CDT 8:50 PM CDT
Nautical Twilight 4:56 AM CDT 9:27 PM CDT
Astronomical Twilight 4:15 AM CDT 10:08 PM CDT
Moon 9:29 PM CDT (5/15) 6:50 AM CDT (5/15)
Length of Visible Light 15h 17m
Length of Day
14h 17m
Full, 99% of the Moon is Illuminated
May 15
Full
May 21
Last Quarter
May 28
New
Jun 5
First Quarter
Jun 12
Full

Hourly Weather History & Observations

Time (CDT) Temp. Dew Point Humidity Pressure Visibility Wind Dir Wind Speed Gust Speed Precip Events Conditions
12:15 AM - - N/A% 30.14 in 10.0 mi Calm Calm - N/A   Light Drizzle
12:35 AM - - N/A% 30.13 in 10.0 mi SSW 5.8 mph - N/A   Overcast
12:55 AM - - N/A% 30.13 in 10.0 mi SSW 6.9 mph - N/A   Overcast
1:15 AM - - N/A% 30.13 in 10.0 mi Calm Calm - N/A   Overcast
1:35 AM - - N/A% 30.12 in 10.0 mi South 4.6 mph - N/A   Overcast
1:55 AM - - N/A% 30.11 in 10.0 mi South 5.8 mph - N/A   Overcast
2:15 AM - - N/A% 30.10 in 10.0 mi SE 5.8 mph - N/A   Overcast
2:35 AM - - N/A% 30.09 in 10.0 mi SSE 4.6 mph - N/A   Overcast
2:55 AM - - N/A% 30.08 in 10.0 mi SE 4.6 mph - N/A   Overcast
3:15 AM - - N/A% 30.08 in 10.0 mi South 4.6 mph - N/A   Overcast
3:35 AM - - N/A% 30.08 in 10.0 mi South 3.5 mph - N/A   Overcast
3:55 AM - - N/A% 30.08 in 10.0 mi Calm Calm - N/A   Overcast
4:15 AM - - N/A% 30.08 in 10.0 mi South 3.5 mph - N/A   Overcast
4:35 AM - - N/A% 30.08 in 10.0 mi Calm Calm - N/A   Overcast
4:55 AM - - N/A% 30.08 in 10.0 mi Calm Calm - N/A   Scattered Clouds
5:15 AM - - N/A% 30.07 in 10.0 mi East 3.5 mph - N/A   Clear
5:35 AM - - N/A% 30.07 in 10.0 mi Calm Calm - N/A   Clear
5:55 AM - - N/A% 30.08 in 10.0 mi Calm Calm - N/A   Clear
6:15 AM - - N/A% 30.08 in 10.0 mi SW 3.5 mph - N/A   Clear
6:35 AM - - N/A% 30.08 in 10.0 mi SW 4.6 mph - N/A   Clear
6:55 AM - - N/A% 30.09 in 10.0 mi West 8.1 mph - N/A   Clear
7:35 AM - - N/A% 30.10 in 10.0 mi NW 13.8 mph - N/A   Mostly Cloudy
7:55 AM - - N/A% 30.11 in 10.0 mi WNW 10.4 mph - N/A   Overcast
8:15 AM - - N/A% 30.11 in 10.0 mi NW 12.7 mph 17.3 mph N/A   Overcast
8:35 AM - - N/A% 30.12 in 10.0 mi NW 12.7 mph 17.3 mph N/A   Mostly Cloudy
8:55 AM - - N/A% 30.13 in 10.0 mi NW 13.8 mph - N/A   Scattered Clouds
9:15 AM - - N/A% 30.13 in 10.0 mi NNW 13.8 mph 19.6 mph N/A   Clear
9:35 AM - - N/A% 30.13 in 10.0 mi NW 10.4 mph 19.6 mph N/A   Clear
9:55 AM - - N/A% 30.13 in 10.0 mi NW 10.4 mph - N/A   Clear
10:15 AM - - N/A% 30.13 in 10.0 mi NW 12.7 mph 18.4 mph N/A   Clear
10:35 AM - - N/A% 30.13 in 10.0 mi NW 17.3 mph 23.0 mph N/A   Clear
10:55 AM - - N/A% 30.14 in 10.0 mi NW 17.3 mph 20.7 mph N/A   Clear
11:15 AM - - N/A% 30.14 in 10.0 mi WNW 17.3 mph 24.2 mph N/A   Clear
11:35 AM - - N/A% 30.14 in 10.0 mi WNW 17.3 mph 23.0 mph N/A   Clear
11:55 AM - - N/A% 30.14 in 10.0 mi West 19.6 mph 26.5 mph N/A   Clear
12:15 PM - - N/A% 30.14 in 10.0 mi WNW 15.0 mph 24.2 mph N/A   Clear
12:55 PM - - N/A% 30.14 in 10.0 mi NW 16.1 mph 27.6 mph N/A Thunderstorm Clear
1:35 PM - - N/A% 30.13 in 10.0 mi West 13.8 mph 25.3 mph N/A   Scattered Clouds
2:15 PM - - N/A% 30.12 in 10.0 mi NW 18.4 mph 26.5 mph N/A   Scattered Clouds
2:55 PM - - N/A% 30.12 in 10.0 mi WNW 18.4 mph 23.0 mph N/A   Scattered Clouds
3:15 PM - - N/A% 30.11 in 10.0 mi NW 18.4 mph 23.0 mph N/A   Mostly Cloudy
3:35 PM - - N/A% 30.11 in 10.0 mi NW 15.0 mph 29.9 mph N/A   Scattered Clouds
3:55 PM - - N/A% 30.11 in 10.0 mi West 19.6 mph 27.6 mph N/A   Scattered Clouds
4:15 PM - - N/A% 30.11 in 10.0 mi NW 13.8 mph 23.0 mph N/A Thunderstorm Scattered Clouds
4:35 PM - - N/A% 30.11 in 10.0 mi NW 15.0 mph 21.9 mph N/A   Scattered Clouds
4:55 PM - - N/A% 30.11 in 10.0 mi WNW 12.7 mph 20.7 mph N/A   Scattered Clouds
5:15 PM - - N/A% 30.11 in 10.0 mi NW 16.1 mph 24.2 mph N/A   Scattered Clouds
5:35 PM - - N/A% 30.11 in 10.0 mi WNW 11.5 mph 21.9 mph N/A   Clear
5:55 PM - - N/A% 30.11 in 10.0 mi WNW 13.8 mph 19.6 mph N/A   Scattered Clouds
6:15 PM - - N/A% 30.11 in 10.0 mi WNW 12.7 mph 21.9 mph N/A   Scattered Clouds
6:55 PM - - N/A% 30.11 in 10.0 mi NW 13.8 mph 20.7 mph N/A   Scattered Clouds
7:15 PM - - N/A% 30.11 in 10.0 mi NW 8.1 mph - N/A   Scattered Clouds
7:35 PM - - N/A% 30.11 in 10.0 mi NW 5.8 mph - N/A   Scattered Clouds
7:55 PM - - N/A% 30.12 in 10.0 mi NW 4.6 mph - N/A   Clear
8:15 PM - - N/A% 30.12 in 10.0 mi NW 4.6 mph - N/A   Clear
8:35 PM - - N/A% 30.12 in 10.0 mi Calm Calm - N/A   Clear
8:55 PM - - N/A% 30.12 in 10.0 mi Calm Calm - N/A   Clear
9:15 PM - - N/A% 30.12 in 10.0 mi Calm Calm - N/A   Clear
9:35 PM - - N/A% 30.13 in 10.0 mi Calm Calm - N/A   Clear
9:55 PM - - N/A% 30.13 in 10.0 mi Calm Calm - N/A   Clear
10:15 PM - - N/A% 30.14 in 10.0 mi Calm Calm - N/A   Mostly Cloudy
10:35 PM - - N/A% 30.14 in 10.0 mi Calm Calm - N/A   Overcast
10:55 PM - - N/A% 30.13 in 10.0 mi Calm Calm - N/A   Overcast
11:15 PM - - N/A% 30.13 in 10.0 mi WNW 3.5 mph - N/A   Overcast
11:55 PM - - N/A% 30.14 in 10.0 mi WNW 3.5 mph - N/A   Clear